Weather History for Talkeetna, AK

Change the Weather History Date:

Wednesday, July 24, 2013

  Actual Average Record
Temperature  
Mean Temperature 68 °F -  
Max Temperature 82 °F 67 °F 87 °F (1953)
Min Temperature 54 °F 49 °F 41 °F (1972)
Cooling Degree Days 3    
Growing Degree Days 18 (Base 50)    
Moisture  
Dew Point 53 °F    
Average Humidity 58    
Maximum Humidity 89    
Minimum Humidity 30    
Precipitation  
Precipitation 0.00 in - - ()
Sea Level Pressure  
Sea Level Pressure 29.98 in    
Wind  
Wind Speed 1 mph (SSW)    
Max Wind Speed 5 mph    
Max Gust Speed -    
Visibility 10 miles    
Events      
Averages and records for this station are not official NWS values.
T = Trace of Precipitation, MM = Missing Value Source: NWS Daily Summary

Daily Weather History Graph

Daily Weather History Graph

Search for Another Location

Airport:

Trip Planner

Search our weather history database for the weather conditions in past years. The results will help you decide how hot, cold, wet, or windy it might be!

Date:

Astronomy

Jul. 24, 2013 Rise Set
Actual Time 5:03 AM AKDT 11:08 PM AKDT
Civil Twilight 3:36 AM AKDT 12:32 AM AKDT
Nautical Twilight Sun does not rise Sun does not rise
Astronomical Twilight Sun does not rise Sun does not rise
Moon 10:54 PM AKDT (7/24) 8:49 AM AKDT (7/24)
Length of Visible Light 20h 56m
Length of Day
18h 05m
Waning Gibbous, 94% of the Moon is Illuminated
Jul 24
Waning Gibbous
Jul 29
Last Quarter
Aug 6
New
Aug 14
First Quarter
Aug 20
Full

Hourly Weather History & Observations

Time (AKDT) Temp. Heat Index Dew Point Humidity Pressure Visibility Wind Dir Wind Speed Gust Speed Precip Events Conditions
12:53 AM 68.0 °F - 53.1 °F 59% 30.03 in 10.0 mi Calm Calm - N/A   Overcast
1:53 AM 61.0 °F - 54.0 °F 78% 30.03 in 10.0 mi Calm Calm - N/A   Clear
2:53 AM 59.0 °F - 53.1 °F 81% 30.04 in 10.0 mi Calm Calm - N/A   Partly Cloudy
3:53 AM 57.0 °F - 53.1 °F 87% 30.04 in 10.0 mi Calm Calm - N/A   Overcast
4:53 AM 57.0 °F - 53.1 °F 87% 30.05 in 10.0 mi Calm Calm - N/A   Overcast
5:53 AM 55.9 °F - 52.0 °F 87% 30.05 in 10.0 mi Calm Calm - N/A   Partly Cloudy
6:53 AM 55.0 °F - 52.0 °F 89% 30.05 in 10.0 mi Calm Calm - N/A   Clear
7:53 AM 60.1 °F - 52.0 °F 75% 30.04 in 10.0 mi Calm Calm - N/A   Clear
8:53 AM 64.9 °F - 53.1 °F 65% 30.03 in 10.0 mi Calm Calm - N/A   Mostly Cloudy
9:53 AM 66.9 °F - 54.0 °F 63% 30.02 in 10.0 mi Calm Calm - N/A   Mostly Cloudy
10:53 AM 69.1 °F - 52.0 °F 54% 30.01 in 10.0 mi Calm Calm - N/A   Clear
11:53 AM 71.1 °F - 52.0 °F 51% 30.00 in 10.0 mi SW 3.5 mph - N/A   Clear
12:53 PM 75.0 °F - 50.0 °F 41% 29.99 in 10.0 mi SW 4.6 mph - N/A   Clear
1:53 PM 77.0 °F - 48.0 °F 36% 29.98 in 10.0 mi Variable 3.5 mph - N/A   Scattered Clouds
2:53 PM 79.0 °F - 52.0 °F 39% 29.96 in 10.0 mi Calm Calm - N/A   Clear
3:53 PM 79.0 °F - 53.1 °F 40% 29.94 in 10.0 mi SSW 4.6 mph - N/A   Scattered Clouds
4:53 PM 79.0 °F - 52.0 °F 39% 29.93 in 10.0 mi Calm Calm - N/A   Clear
5:53 PM 81.0 °F - 52.0 °F 36% 29.92 in 10.0 mi WSW 3.5 mph - N/A   Clear
6:53 PM 81.0 °F 80.5 °F 54.0 °F 39% 29.91 in 10.0 mi South 4.6 mph - N/A   Clear
7:53 PM 80.1 °F - 51.1 °F 36% 29.91 in 10.0 mi Calm Calm - N/A   Clear
8:53 PM 80.1 °F 79.9 °F 53.1 °F 39% 29.91 in 10.0 mi Calm Calm - N/A   Clear
9:53 PM 73.0 °F - 57.9 °F 59% 29.91 in 10.0 mi Calm Calm - N/A   Mostly Cloudy
10:53 PM 72.0 °F - 59.0 °F 64% 29.91 in 10.0 mi Calm Calm - N/A   Partly Cloudy
11:53 PM 70.0 °F - 55.9 °F 61% 29.92 in 10.0 mi South 4.6 mph - N/A   Clear